Regional Weather Roundup
Issued by NWS

Home | Current Version | Previous Version | Text Only | Print | Product List | Glossary Off
Versions: 1 2 3 4 5 6 7 8 9 10 11 12 13 14 15 16 17 18 19 20 21 22 23 24 25 26 27 28 29 30 31 32 33 34 35 36 37 38 39 40 41 42 43 44 45 46 47 48 49 50

000
ASUS44 KMEG 281710
RWRTN
TENNESSEE HOURLY STATE WEATHER ROUNDUP
NATIONAL WEATHER SERVICE MEMPHIS TN
1200 PM CDT SAT MAR 28 2015

TNZ002-004-019-021-049-052-054-088>092-281800-
WEST TENNESSEE

CITY           SKY/WX    TMP DP  RH WIND       PRES   REMARKS
MEMPHIS INTL   FLURRIES  40  23  50 SE5       30.33R
NWS MEMPHIS      N/A     41 N/A N/A MISG        N/A
JACKSON        CLOUDY    41  22  46 VRB5      30.32R
DYERSBURG      CLOUDY    41  16  36 CALM      30.35R
UNION CITY     SUNNY     39  25  56 N5        30.32S
PARIS          SUNNY     37  16  41 N8        30.32R WCI  31
LEXINGTON      SUNNY     41  14  33 VRB6      30.29S
SAVANNAH       SUNNY     41  19  42 N8        30.32R
$$

TNZ008-025-027-028-033-062-065-066-281800-
NORTH MIDDLE TENNESSEE

CITY           SKY/WX    TMP DP  RH WIND       PRES   REMARKS
NASHVILLE      MOSUNNY   42  12  29 N8        30.28F
CLARKSVILLE    SUNNY     39  17  41 NW12      30.31S WCI  32
SMYRNA         SUNNY     39  15  38 NW8       30.30S WCI  33
COOKEVILLE     SUNNY     39  16  38 NW6       30.22S WCI  35
CROSSVILLE     SUNNY     39  13  34 N10G16    30.17R WCI  32
$$

TNZ061-075-076-078-094-096-097-281800-
SOUTH MIDDLE TENNESSEE

CITY           SKY/WX    TMP DP  RH WIND       PRES   REMARKS
FAYETTEVILLE   SUNNY     37  21  52 NW9       30.25S WCI  31
TULLAHOMA      SUNNY     37  18  44 NW10      30.24S WCI  30
WINCHESTER     SUNNY     39  19  45 NW8       30.24S WCI  34
MCMINNVILLE    SUNNY     39  16  38 W9        30.23S WCI  33
COLUMBIA       SUNNY     39  19  45 NW6       30.27R WCI  35
SHELBYVILLE    SUNNY     39  19  45 VRB7      30.27S WCI  34
$$

TNZ017-018-042-046-047-281800-
NORTHEAST TENNESSEE

CITY           SKY/WX    TMP DP  RH WIND       PRES   REMARKS
TRI CITIES     PTSUNNY   34  16  47 W10G17    30.14S WCI  26
ELIZABETHTON   MOSUNNY   34  16  47 W7        30.12S WCI  28
$$

TNZ012-013-036-069-073-074-281800-
CENTRAL EAST TENNESSEE

CITY           SKY/WX    TMP DP  RH WIND       PRES   REMARKS
KNOXVILLE      MOSUNNY   39  15  37 NW8       30.19S WCI  33
OAK RIDGE      SUNNY     43  16  33 VRB3      30.20S
GATLINBURG     SUNNY     37  14  38 CALM      30.18S
MORRISTOWN     SUNNY     36  16  44 CALM      30.17S
$$

TNZ083-085-099-281800-
SOUTHEAST TENNESSEE

CITY           SKY/WX    TMP DP  RH WIND       PRES   REMARKS
CHATTANOOGA    MOSUNNY   45  16  31 N8        30.21S
$$

SKY/WX REPORTED AS FAIR MEANS FEW OR NO CLOUDS BELOW
12 THOUSAND FEET.



USA.gov is the U.S. government's official web portal to all federal, state and local government web resources and services.